Tracking 20712 objects as of 28-May-2020
HD Live streaming from Space Station
objects crossing your sky now

FENGYUN 1C DEB

Track FENGYUN 1C DEB now!
10-day predictions


NORAD ID: 30287
Int'l Code: 1999-025YY
Perigee: 714.3 km
Apogee: 1,364.4 km
Inclination: 98.7 °
Period: 105.8 minutes
Semi major axis: 7410 km
RCS: 0.0604 m2 (small)
Launch date: May 10, 1999
Source: People's Republic of China (PRC)
Launch site: Taiyaun Space Center, China (TSC)

Note: This is SATELLITE DEBRIS
aabbcc
Your satellite tracking list
Your tracking list is empty




NASA's NSSDC Master Catalog

Two Line Element Set (TLE):
1 30287U 99025YY  20148.57673220 +.00000190 +00000-0 +16032-3 0  9997
2 30287 098.6521 010.3891 0438640 306.8201 101.6555 13.60961933662693
Source of the keplerian elements: AFSPC